Tracking 28790 objects as of 19-Apr-2024
HD Live streaming from Space Station
objects crossing your sky now

COSMOS 886

Track COSMOS 886 now!
10-day predictions
COSMOS 886 is classified as:


NORAD ID: 9634
Int'l Code: 1976-126A
Perigee: 592.0 km
Apogee: 2,298.3 km
Inclination: 65.8 °
Period: 114.6 minutes
Semi major axis: 7816 km
RCS: 4.7964 m2 (large)
Launch date: December 27, 1976
Source: Commonwealth of Independent States (former USSR) (CIS)
Launch site: TYURATAM MISSILE AND SPACE COMPLEX (TTMTR)
Your satellite tracking list
Your tracking list is empty




NASA's NSSDC Master Catalog

Two Line Element Set (TLE):
1 09634U 76126A   24109.66239045  .00000361  00000-0  24041-3 0  9999
2 09634  65.8342 251.4566 1091494 220.0458 131.4948 12.56357530181018
Source of the keplerian elements: AFSPC